When you browse on this site, cookies collect data to enhance your experience and personalize the content and advertising you see.
Visit our Privacy Policy to learn more. By continuing to use the site, you agree to this use of cookies and data.
EN

Hourly Weather Pykovets'

Today, 2 July, Thursday

Time Temperature Precipitation Wind Pressure Humidity
00:00 +18°C° 0 mm 2 mps 735 mmHg 86%
01:00 +18°C° 0 mm 2 mps 735 mmHg 87%
02:00 +18°C° 0 mm 2 mps 735 mmHg 88%
03:00 +18°C° 0 mm 2 mps 735 mmHg 87%
04:00 +18°C° 0 mm 2 mps 735 mmHg 87%
05:00 +18°C° 0 mm 2 mps 735 mmHg 87%
06:00 +20°C° 0 mm 2 mps 735 mmHg 82%
07:00 +23°C° 0 mm 2 mps 735 mmHg 77%
08:00 +24°C° 0 mm 2 mps 736 mmHg 72%
09:00 +26°C° 0 mm 2 mps 736 mmHg 68%
10:00 +27°C° 0 mm 2 mps 736 mmHg 65%
11:00 +28°C° 0 mm 3 mps 736 mmHg 61%
12:00 +28°C° 0 mm 3 mps 736 mmHg 60%
13:00 +29°C° 0 mm 3 mps 736 mmHg 60%
14:00 +29°C° 0 mm 3 mps 736 mmHg 59%
15:00 +29°C° 0.2 mm 3 mps 735 mmHg 61%
16:00 +29°C° 0.2 mm 3 mps 735 mmHg 63%
17:00 +29°C° 0.2 mm 2 mps 735 mmHg 65%
18:00 +27°C° 0 mm 2 mps 735 mmHg 69%
19:00 +25°C° 0 mm 2 mps 735 mmHg 74%
20:00 +24°C° 0 mm 2 mps 734 mmHg 78%
21:00 +23°C° 0 mm 2 mps 734 mmHg 80%
22:00 +21°C° 0 mm 2 mps 734 mmHg 81%
23:00 +20°C° 0 mm 2 mps 734 mmHg 83%

Tomorrow, 3 July, Friday

Time Temperature Precipitation Wind Pressure Humidity
00:00 +20°C° 0 mm 3 mps 734 mmHg 82%
01:00 +20°C° 0 mm 3 mps 734 mmHg 81%
02:00 +19°C° 0 mm 3 mps 734 mmHg 80%
03:00 +19°C° 0 mm 3 mps 734 mmHg 82%
04:00 +19°C° 0 mm 3 mps 734 mmHg 83%
05:00 +19°C° 0 mm 3 mps 734 mmHg 85%
06:00 +21°C° 0 mm 4 mps 734 mmHg 81%
07:00 +22°C° 0 mm 4 mps 734 mmHg 77%
08:00 +25°C° 0 mm 4 mps 734 mmHg 74%
09:00 +26°C° 0 mm 4 mps 734 mmHg 69%
10:00 +27°C° 0 mm 5 mps 735 mmHg 65%
11:00 +29°C° 0 mm 5 mps 735 mmHg 60%
12:00 +29°C° 0 mm 5 mps 734 mmHg 60%
13:00 +29°C° 0 mm 5 mps 734 mmHg 59%
14:00 +30°C° 0 mm 5 mps 733 mmHg 59%
15:00 +29°C° 0.1 mm 5 mps 733 mmHg 62%
16:00 +29°C° 0.1 mm 4 mps 733 mmHg 65%
17:00 +29°C° 0.1 mm 4 mps 733 mmHg 68%
18:00 +27°C° 0.2 mm 3 mps 733 mmHg 73%
19:00 +25°C° 0.2 mm 3 mps 733 mmHg 78%
20:00 +24°C° 0.2 mm 2 mps 733 mmHg 83%
21:00 +23°C° 0.2 mm 2 mps 733 mmHg 85%
22:00 +22°C° 0.2 mm 1 mps 734 mmHg 88%
23:00 +21°C° 0.2 mm 1 mps 734 mmHg 91%

Day after tomorrow, 4 July, Saturday

Time Temperature Precipitation Wind Pressure Humidity
00:00 +21°C° 0.3 mm 1 mps 734 mmHg 91%
01:00 +21°C° 0.3 mm 1 mps 734 mmHg 92%
02:00 +21°C° 0.3 mm 1 mps 734 mmHg 92%
03:00 +21°C° 0.2 mm 1 mps 734 mmHg 92%
04:00 +21°C° 0.2 mm 1 mps 734 mmHg 92%
05:00 +21°C° 0.2 mm 1 mps 734 mmHg 92%
06:00 +22°C° 0 mm 1 mps 734 mmHg 90%
07:00 +21°C° 0 mm 2 mps 735 mmHg 88%
08:00 +23°C° 0 mm 2 mps 735 mmHg 87%
09:00 +24°C° 0.6 mm 2 mps 735 mmHg 85%
10:00 +24°C° 0.6 mm 2 mps 735 mmHg 83%
11:00 +25°C° 0.6 mm 2 mps 736 mmHg 81%
12:00 +25°C° 0.5 mm 3 mps 736 mmHg 79%
13:00 +26°C° 0.5 mm 3 mps 735 mmHg 78%
14:00 +26°C° 0.5 mm 4 mps 735 mmHg 76%
15:00 +26°C° 0.1 mm 3 mps 735 mmHg 77%
16:00 +26°C° 0.1 mm 3 mps 735 mmHg 78%
17:00 +26°C° 0.1 mm 3 mps 735 mmHg 79%
18:00 +25°C° 0.1 mm 3 mps 735 mmHg 82%
19:00 +24°C° 0.1 mm 2 mps 735 mmHg 85%
20:00 +23°C° 0.1 mm 2 mps 735 mmHg 89%
21:00 +21°C° 0.1 mm 2 mps 736 mmHg 90%
22:00 +21°C° 0.1 mm 2 mps 736 mmHg 92%
23:00 +20°C° 0.1 mm 2 mps 736 mmHg 94%

5 July, Sunday

Time Temperature Precipitation Wind Pressure Humidity
00:00 +20°C° 0.1 mm 2 mps 736 mmHg 94%
01:00 +19°C° 0.1 mm 2 mps 736 mmHg 95%
02:00 +19°C° 0.1 mm 2 mps 736 mmHg 95%
03:00 +19°C° 0 mm 2 mps 736 mmHg 95%
04:00 +19°C° 0 mm 3 mps 736 mmHg 95%
05:00 +19°C° 0 mm 3 mps 736 mmHg 95%
06:00 +19°C° 0.1 mm 3 mps 736 mmHg 94%
07:00 +19°C° 0.1 mm 2 mps 736 mmHg 94%
08:00 +20°C° 0.1 mm 2 mps 736 mmHg 94%
09:00 +20°C° 0 mm 2 mps 736 mmHg 92%
10:00 +20°C° 0 mm 2 mps 736 mmHg 91%
11:00 +21°C° 0 mm 2 mps 736 mmHg 90%
12:00 +23°C° 0.3 mm 2 mps 736 mmHg 85%
13:00 +24°C° 0.3 mm 2 mps 736 mmHg 79%
14:00 +26°C° 0.3 mm 2 mps 736 mmHg 74%
15:00 +26°C° 0.3 mm 2 mps 736 mmHg 74%
16:00 +26°C° 0.3 mm 2 mps 735 mmHg 74%
17:00 +26°C° 0.3 mm 2 mps 735 mmHg 73%
18:00 +25°C° 0.3 mm 2 mps 735 mmHg 78%
19:00 +24°C° 0.3 mm 2 mps 735 mmHg 83%
20:00 +22°C° 0.3 mm 1 mps 735 mmHg 87%
21:00 +22°C° 0 mm 1 mps 735 mmHg 88%
22:00 +21°C° 0 mm 1 mps 736 mmHg 89%
23:00 +20°C° 0 mm 1 mps 736 mmHg 89%

6 July, Monday

Time Temperature Precipitation Wind Pressure Humidity
00:00 +20°C° 0 mm 1 mps 735 mmHg 90%
01:00 +20°C° 0 mm 1 mps 735 mmHg 90%
02:00 +19°C° 0 mm 1 mps 735 mmHg 91%
03:00 +19°C° 0 mm 1 mps 735 mmHg 91%
04:00 +19°C° 0 mm 1 mps 735 mmHg 91%
05:00 +19°C° 0 mm 1 mps 735 mmHg 91%
06:00 +20°C° 0 mm 1 mps 735 mmHg 86%
07:00 +22°C° 0 mm 1 mps 736 mmHg 81%
08:00 +24°C° 0 mm 1 mps 736 mmHg 75%
09:00 +25°C° 0 mm 1 mps 736 mmHg 71%
10:00 +26°C° 0 mm 1 mps 736 mmHg 67%
11:00 +28°C° 0 mm 1 mps 736 mmHg 63%
12:00 +28°C° 0 mm 1 mps 736 mmHg 62%
13:00 +28°C° 0 mm 1 mps 735 mmHg 61%
14:00 +28°C° 0 mm 1 mps 735 mmHg 60%
15:00 +28°C° 0 mm 1 mps 735 mmHg 61%
16:00 +28°C° 0 mm 1 mps 735 mmHg 61%
17:00 +28°C° 0 mm 1 mps 734 mmHg 62%
18:00 +27°C° 0 mm 1 mps 734 mmHg 67%
19:00 +25°C° 0 mm 1 mps 734 mmHg 72%
20:00 +24°C° 0 mm 1 mps 734 mmHg 78%
21:00 +23°C° 0 mm 1 mps 734 mmHg 80%
22:00 +20°C° 0 mm 0 mps 734 mmHg 83%
23:00 +19°C° 0 mm 0 mps 734 mmHg 85%

7 July, Tuesday

Time Temperature Precipitation Wind Pressure Humidity
00:00 +19°C° 0 mm 0 mps 734 mmHg 86%
01:00 +19°C° 0 mm 0 mps 734 mmHg 87%
02:00 +19°C° 0 mm 0 mps 734 mmHg 87%
03:00 +21°C° 0 mm 1 mps 734 mmHg 88%
04:00 +21°C° 0 mm 1 mps 734 mmHg 88%
05:00 +21°C° 0 mm 1 mps 734 mmHg 88%
06:00 +22°C° 0 mm 1 mps 734 mmHg 84%
07:00 +24°C° 0 mm 1 mps 734 mmHg 80%
08:00 +25°C° 0 mm 2 mps 734 mmHg 76%
09:00 +26°C° 0.5 mm 2 mps 734 mmHg 72%
10:00 +27°C° 0.5 mm 2 mps 733 mmHg 69%
11:00 +28°C° 0.5 mm 2 mps 733 mmHg 65%
12:00 +28°C° 0.4 mm 2 mps 733 mmHg 63%
13:00 +29°C° 0.4 mm 1 mps 733 mmHg 61%
14:00 +29°C° 0.4 mm 1 mps 732 mmHg 59%
15:00 +29°C° 0.7 mm 1 mps 732 mmHg 63%
16:00 +28°C° 0.7 mm 1 mps 732 mmHg 66%
17:00 +28°C° 0.7 mm 1 mps 732 mmHg 70%
18:00 +26°C° 0.9 mm 2 mps 732 mmHg 75%
19:00 +25°C° 0.9 mm 3 mps 732 mmHg 79%
20:00 +22°C° 0.9 mm 3 mps 732 mmHg 84%
21:00 +22°C° 0.2 mm 3 mps 732 mmHg 87%
22:00 +21°C° 0.2 mm 3 mps 732 mmHg 89%
23:00 +20°C° 0.2 mm 3 mps 732 mmHg 91%
Show more